This demonstration page uses our WeatherBlox Daily Observations layout. Learn more.

Left ArrowRight Arrow

Hourly Observations for June 29, 2020

Temp ( °F °C ) Dew Point ( °F °C ) Humidity (%) Winds ( mph kmh ) Pressure ( in mb ) Visibility ( mi km ) Precip ( " mm )
12:53 am 00:53 Cloudy 56 13.3 51 10.6 84 84 W 7 11 29.68 1005 10 16 N/A
1:53 am 01:53 Cloudy 57 13.9 50 10 78 78 VRB 3 6 29.68 1005 10 16 N/A
2:53 am 02:53 Cloudy 56 13.3 50 10 81 81 W 5 7 29.70 1006 10 16 N/A
3:01 am 03:01 Cloudy 56 13.3 50 10 81 81 W 5 7 29.70 1006 10 16 N/A
3:32 am 03:32 Cloudy 55 12.8 50 10 83 83 W 5 7 29.70 1006 10 16 N/A
3:53 am 03:53 Cloudy 55 12.8 50 10 83 83 WNW 6 9 29.70 1006 10 16 N/A
4:53 am 04:53 Cloudy 55 12.8 52 11.1 90 90 N N/A 29.71 1006 10 16 N/A
5:01 am 05:01 Cloudy 55 12.8 52 11.1 90 90 N N/A 29.70 1006 10 16 N/A
5:53 am 05:53 Cloudy with Light Rain 54 12.2 52 11.1 93 93 W 6 9 29.72 1007 10 16 0.01 0.25
6:22 am 06:22 Cloudy with Light Rain 54 12.2 52 11.1 93 93 NW 8 13 29.71 1006 10 16 0.00 0.00
6:53 am 06:53 Cloudy with Light Rain 54 12.2 53 11.7 97 97 NW 3 6 29.71 1006 10 16 0.02 0.51
7:18 am 07:18 Cloudy 55 12.8 53 11.7 93 93 WNW 7 11 29.71 1006 10 16 0.00 0.00
7:39 am 07:39 Cloudy 55 12.8 54 12.2 96 96 W 5 7 29.71 1006 10 16 0.00 0.00
7:53 am 07:53 Cloudy with Heavy Rain 57 13.9 54 12.2 90 90 N 6 9 29.73 1007 3 5 0.02 0.51
8:04 am 08:04 Cloudy with Light Rain 57 14 54 12 88 88 N 9 15 29.70 1006 5 8 N/A
8:53 am 08:53 Cloudy with Light Rain 57 13.9 55 12.8 93 93 N 9 15 29.75 1007 10 16 0.04 1.02
9:02 am 09:02 Cloudy with Light Rain 57 14 55 13 94 94 N 10 17 29.72 1006 10 16 N/A
9:30 am 09:30 Cloudy with Rain 57 13.9 56 13.3 96 96 N 10 17 29.71 1006 4 6 0.07 1.78
9:40 am 09:40 Cloudy with Light Rain 58 14.4 56 13.3 93 93 N 12 19 29.71 1006 8 13 0.08 2.03
9:53 am 09:53 Cloudy with Light Rain 58 14.4 55 12.8 90 90 N 12 19 29.75 1007 10 16 0.08 2.03
10:41 am 10:41 Cloudy 59 15 56 13.3 90 90 N 12 19 29.71 1006 10 16 0.00 0.00
10:53 am 10:53 Cloudy 59 15 56 13.3 90 90 N 14 22 29.74 1007 10 16 0.00 0.00
11:53 am 11:53 Cloudy 60 15.6 57 13.9 90 90 N 9 15 29.75 1007 10 16 0.01 0.25
12:15 pm 12:15 Cloudy with Rain 60 15.6 57 13.9 90 90 N 7 11 29.70 1006 9 14 0.01 0.25
12:53 pm 12:53 Cloudy with Light Rain 60 15.6 57 13.9 90 90 NNW 13 20 29.75 1007 10 16 0.04 1.02
1:29 pm 13:29 Cloudy 60 15.6 57 13.9 90 90 N 13 20 29.70 1006 10 16 0.01 0.25
1:53 pm 13:53 Cloudy 60 15.6 56 13.3 86 86 N 16 26 29.74 1007 10 16 0.01 0.25
2:53 pm 14:53 Cloudy with Light Rain 60 15.6 57 13.9 90 90 N 16 26 29.75 1007 10 16 0.00 0.00
3:53 pm 15:53 Cloudy with Light Rain 59 15 57 13.9 93 93 N 15 24 29.76 1008 9 14 0.01 0.25
4:27 pm 16:27 Cloudy with Light Rain 60 15.6 57 13.9 90 90 N 13 20 29.70 1006 10 16 0.02 0.51
4:53 pm 16:53 Cloudy 60 15.6 57 13.9 90 90 N 15 24 29.74 1007 10 16 0.02 0.51
5:27 pm 17:27 Cloudy 61 16.1 58 14.4 90 90 NNE 14 22 29.70 1006 10 16 0.00 0.00
5:53 pm 17:53 Cloudy 61 16.1 58 14.4 90 90 NNE 13 20 29.73 1007 10 16 0.00 0.00
6:53 pm 18:53 Cloudy 61 16.1 59 15 93 93 NE 7 11 29.73 1007 10 16 0.01 0.25
7:53 pm 19:53 Cloudy 61 16.1 59 15 93 93 NE 9 15 29.72 1006 10 16 N/A
8:22 pm 20:22 Cloudy 61 16.1 58 14.4 90 90 NE 9 15 29.67 1005 7 11 N/A
8:44 pm 20:44 Cloudy with Light Rain 61 16 59 15 94 94 NNE 3 6 29.67 1005 3 4 N/A
8:47 pm 20:47 Cloudy with Light Rain 61 16 59 15 94 94 N 5 7 29.67 1005 3 5 0.01 0.25
8:53 pm 20:53 Cloudy with Light Rain 60 15.6 59 15 96 96 N 6 9 29.71 1006 3 5 0.01 0.25
8:55 pm 20:55 Cloudy with Light Rain 60 15.6 59 15 96 96 NNE 7 11 29.67 1005 3 4 0.00 0.00
9:16 pm 21:16 Cloudy with Mist and Fog 60 15.6 59 15 96 96 NNE 6 9 29.65 1004 3 5 0.01 0.25
9:42 pm 21:42 Cloudy with Light Rain 60 15.6 58 14.4 93 93 NE 10 17 29.66 1005 3 4 0.02 0.51
9:50 pm 21:50 Cloudy with Mist and Fog 61 16 59 15 94 94 NE 13 20 29.65 1004 3 4 0.03 0.76
9:53 pm 21:53 Cloudy with Mist and Fog 60 15.6 59 15 96 96 NE 13 20 29.70 1006 3 4 0.03 0.76
10:00 pm 22:00 Cloudy with Mist and Fog 60 15.6 59 15 96 96 NE 13 20 29.65 1004 4 6 N/A
10:47 pm 22:47 Cloudy 59 15 57 14 94 94 SSW 9 15 29.67 1005 8 13 0.01 0.25
10:53 pm 22:53 Cloudy 59 15 58 14.4 96 96 SW 8 13 29.69 1005 9 14 0.01 0.25
11:06 pm 23:06 Cloudy 59 15 58 14.4 96 96 SW 7 11 29.66 1004 10 16 N/A
11:19 pm 23:19 Cloudy 59 15 58 14.4 96 96 S 8 13 29.66 1004 10 16 N/A
11:53 pm 23:53 Cloudy 59 15 58 14.4 96 96 S 3 6 29.69 1005 10 16 N/A

Powered by AerisWeather